Index of /20260430/WXO-DD/model_rdps/10km/18/060
Name Last modified Size Description
Parent Directory -
20260430T18Z_MSC_RDPS_AbsoluteVorticity_IsbL-0250_RLatLon0.09_PT060H.grib2 2026-04-30 20:56 612K
20260430T18Z_MSC_RDPS_AbsoluteVorticity_IsbL-0500_RLatLon0.09_PT060H.grib2 2026-04-30 20:56 570K
20260430T18Z_MSC_RDPS_AbsoluteVorticity_IsbL-0700_RLatLon0.09_PT060H.grib2 2026-04-30 20:56 620K
20260430T18Z_MSC_RDPS_AbsoluteVorticity_IsbL-0850_RLatLon0.09_PT060H.grib2 2026-04-30 20:56 780K
20260430T18Z_MSC_RDPS_AirTemp_AGL-120m_RLatLon0.09_PT060H.grib2 2026-04-30 20:56 372K
20260430T18Z_MSC_RDPS_AirTemp_AGL-2m_RLatLon0.09_PT060H.grib2 2026-04-30 20:56 628K
20260430T18Z_MSC_RDPS_AirTemp_AGL-40m_RLatLon0.09_PT060H.grib2 2026-04-30 20:56 388K
20260430T18Z_MSC_RDPS_AirTemp_AGL-80m_RLatLon0.09_PT060H.grib2 2026-04-30 20:56 379K
20260430T18Z_MSC_RDPS_AirTemp_IsbL-0001_RLatLon0.09_PT060H.grib2 2026-04-30 20:56 227K
20260430T18Z_MSC_RDPS_AirTemp_IsbL-0005_RLatLon0.09_PT060H.grib2 2026-04-30 20:56 286K
20260430T18Z_MSC_RDPS_AirTemp_IsbL-0010_RLatLon0.09_PT060H.grib2 2026-04-30 20:56 296K
20260430T18Z_MSC_RDPS_AirTemp_IsbL-0020_RLatLon0.09_PT060H.grib2 2026-04-30 20:56 408K
20260430T18Z_MSC_RDPS_AirTemp_IsbL-0030_RLatLon0.09_PT060H.grib2 2026-04-30 20:56 337K
20260430T18Z_MSC_RDPS_AirTemp_IsbL-0050_RLatLon0.09_PT060H.grib2 2026-04-30 20:56 315K
20260430T18Z_MSC_RDPS_AirTemp_IsbL-0100_RLatLon0.09_PT060H.grib2 2026-04-30 20:56 390K
20260430T18Z_MSC_RDPS_AirTemp_IsbL-0150_RLatLon0.09_PT060H.grib2 2026-04-30 20:56 417K
20260430T18Z_MSC_RDPS_AirTemp_IsbL-0175_RLatLon0.09_PT060H.grib2 2026-04-30 20:56 407K
20260430T18Z_MSC_RDPS_AirTemp_IsbL-0200_RLatLon0.09_PT060H.grib2 2026-04-30 20:56 412K
20260430T18Z_MSC_RDPS_AirTemp_IsbL-0225_RLatLon0.09_PT060H.grib2 2026-04-30 20:56 414K
20260430T18Z_MSC_RDPS_AirTemp_IsbL-0250_RLatLon0.09_PT060H.grib2 2026-04-30 20:56 420K
20260430T18Z_MSC_RDPS_AirTemp_IsbL-0275_RLatLon0.09_PT060H.grib2 2026-04-30 20:56 401K
20260430T18Z_MSC_RDPS_AirTemp_IsbL-0300_RLatLon0.09_PT060H.grib2 2026-04-30 20:56 434K
20260430T18Z_MSC_RDPS_AirTemp_IsbL-0350_RLatLon0.09_PT060H.grib2 2026-04-30 20:56 424K
20260430T18Z_MSC_RDPS_AirTemp_IsbL-0400_RLatLon0.09_PT060H.grib2 2026-04-30 20:56 426K
20260430T18Z_MSC_RDPS_AirTemp_IsbL-0450_RLatLon0.09_PT060H.grib2 2026-04-30 20:56 400K
20260430T18Z_MSC_RDPS_AirTemp_IsbL-0500_RLatLon0.09_PT060H.grib2 2026-04-30 20:56 409K
20260430T18Z_MSC_RDPS_AirTemp_IsbL-0550_RLatLon0.09_PT060H.grib2 2026-04-30 20:56 426K
20260430T18Z_MSC_RDPS_AirTemp_IsbL-0600_RLatLon0.09_PT060H.grib2 2026-04-30 20:56 441K
20260430T18Z_MSC_RDPS_AirTemp_IsbL-0650_RLatLon0.09_PT060H.grib2 2026-04-30 20:56 455K
20260430T18Z_MSC_RDPS_AirTemp_IsbL-0700_RLatLon0.09_PT060H.grib2 2026-04-30 20:56 480K
20260430T18Z_MSC_RDPS_AirTemp_IsbL-0750_RLatLon0.09_PT060H.grib2 2026-04-30 20:56 514K
20260430T18Z_MSC_RDPS_AirTemp_IsbL-0800_RLatLon0.09_PT060H.grib2 2026-04-30 20:56 447K
20260430T18Z_MSC_RDPS_AirTemp_IsbL-0850_RLatLon0.09_PT060H.grib2 2026-04-30 20:56 498K
20260430T18Z_MSC_RDPS_AirTemp_IsbL-0875_RLatLon0.09_PT060H.grib2 2026-04-30 20:56 520K
20260430T18Z_MSC_RDPS_AirTemp_IsbL-0900_RLatLon0.09_PT060H.grib2 2026-04-30 20:56 530K
20260430T18Z_MSC_RDPS_AirTemp_IsbL-0925_RLatLon0.09_PT060H.grib2 2026-04-30 20:56 522K
20260430T18Z_MSC_RDPS_AirTemp_IsbL-0950_RLatLon0.09_PT060H.grib2 2026-04-30 20:56 522K
20260430T18Z_MSC_RDPS_AirTemp_IsbL-0970_RLatLon0.09_PT060H.grib2 2026-04-30 20:56 514K
20260430T18Z_MSC_RDPS_AirTemp_IsbL-0985_RLatLon0.09_PT060H.grib2 2026-04-30 20:56 503K
20260430T18Z_MSC_RDPS_AirTemp_IsbL-1000_RLatLon0.09_PT060H.grib2 2026-04-30 20:56 484K
20260430T18Z_MSC_RDPS_AirTemp_IsbL-1015_RLatLon0.09_PT060H.grib2 2026-04-30 20:56 483K
20260430T18Z_MSC_RDPS_Albedo_Sfc_RLatLon0.09_PT060H.grib2 2026-04-30 20:56 157K
20260430T18Z_MSC_RDPS_CAPE_Sfc_RLatLon0.09_PT060H.grib2 2026-04-30 20:56 1.6M
20260430T18Z_MSC_RDPS_CIN_Sfc_RLatLon0.09_PT060H.grib2 2026-04-30 20:56 1.1M
20260430T18Z_MSC_RDPS_CloudWater_EAtm_RLatLon0.09_PT060H.grib2 2026-04-30 20:56 221K
20260430T18Z_MSC_RDPS_ConvectivePrecip-Accum_Sfc_RLatLon0.09_PT060H.grib2 2026-04-30 20:56 1.1M
20260430T18Z_MSC_RDPS_DewPointDepression_AGL-2m_RLatLon0.09_PT060H.grib2 2026-04-30 20:56 396K
20260430T18Z_MSC_RDPS_DewPointDepression_IsbL-0001_RLatLon0.09_PT060H.grib2 2026-04-30 20:56 193
20260430T18Z_MSC_RDPS_DewPointDepression_IsbL-0005_RLatLon0.09_PT060H.grib2 2026-04-30 20:56 193
20260430T18Z_MSC_RDPS_DewPointDepression_IsbL-0010_RLatLon0.09_PT060H.grib2 2026-04-30 20:56 193
20260430T18Z_MSC_RDPS_DewPointDepression_IsbL-0020_RLatLon0.09_PT060H.grib2 2026-04-30 20:56 193
20260430T18Z_MSC_RDPS_DewPointDepression_IsbL-0030_RLatLon0.09_PT060H.grib2 2026-04-30 20:56 193
20260430T18Z_MSC_RDPS_DewPointDepression_IsbL-0050_RLatLon0.09_PT060H.grib2 2026-04-30 20:56 105K
20260430T18Z_MSC_RDPS_DewPointDepression_IsbL-0100_RLatLon0.09_PT060H.grib2 2026-04-30 20:56 120K
20260430T18Z_MSC_RDPS_DewPointDepression_IsbL-0150_RLatLon0.09_PT060H.grib2 2026-04-30 20:56 149K
20260430T18Z_MSC_RDPS_DewPointDepression_IsbL-0175_RLatLon0.09_PT060H.grib2 2026-04-30 20:56 183K
20260430T18Z_MSC_RDPS_DewPointDepression_IsbL-0200_RLatLon0.09_PT060H.grib2 2026-04-30 20:56 216K
20260430T18Z_MSC_RDPS_DewPointDepression_IsbL-0225_RLatLon0.09_PT060H.grib2 2026-04-30 20:56 252K
20260430T18Z_MSC_RDPS_DewPointDepression_IsbL-0250_RLatLon0.09_PT060H.grib2 2026-04-30 20:56 292K
20260430T18Z_MSC_RDPS_DewPointDepression_IsbL-0275_RLatLon0.09_PT060H.grib2 2026-04-30 20:56 304K
20260430T18Z_MSC_RDPS_DewPointDepression_IsbL-0300_RLatLon0.09_PT060H.grib2 2026-04-30 20:56 322K
20260430T18Z_MSC_RDPS_DewPointDepression_IsbL-0350_RLatLon0.09_PT060H.grib2 2026-04-30 20:56 332K
20260430T18Z_MSC_RDPS_DewPointDepression_IsbL-0400_RLatLon0.09_PT060H.grib2 2026-04-30 20:56 341K
20260430T18Z_MSC_RDPS_DewPointDepression_IsbL-0450_RLatLon0.09_PT060H.grib2 2026-04-30 20:56 348K
20260430T18Z_MSC_RDPS_DewPointDepression_IsbL-0500_RLatLon0.09_PT060H.grib2 2026-04-30 20:56 353K
20260430T18Z_MSC_RDPS_DewPointDepression_IsbL-0550_RLatLon0.09_PT060H.grib2 2026-04-30 20:56 364K
20260430T18Z_MSC_RDPS_DewPointDepression_IsbL-0600_RLatLon0.09_PT060H.grib2 2026-04-30 20:56 374K
20260430T18Z_MSC_RDPS_DewPointDepression_IsbL-0650_RLatLon0.09_PT060H.grib2 2026-04-30 20:56 380K
20260430T18Z_MSC_RDPS_DewPointDepression_IsbL-0700_RLatLon0.09_PT060H.grib2 2026-04-30 20:56 390K
20260430T18Z_MSC_RDPS_DewPointDepression_IsbL-0750_RLatLon0.09_PT060H.grib2 2026-04-30 20:56 406K
20260430T18Z_MSC_RDPS_DewPointDepression_IsbL-0800_RLatLon0.09_PT060H.grib2 2026-04-30 20:56 438K
20260430T18Z_MSC_RDPS_DewPointDepression_IsbL-0850_RLatLon0.09_PT060H.grib2 2026-04-30 20:56 471K
20260430T18Z_MSC_RDPS_DewPointDepression_IsbL-0875_RLatLon0.09_PT060H.grib2 2026-04-30 20:56 475K
20260430T18Z_MSC_RDPS_DewPointDepression_IsbL-0900_RLatLon0.09_PT060H.grib2 2026-04-30 20:56 463K
20260430T18Z_MSC_RDPS_DewPointDepression_IsbL-0925_RLatLon0.09_PT060H.grib2 2026-04-30 20:56 445K
20260430T18Z_MSC_RDPS_DewPointDepression_IsbL-0950_RLatLon0.09_PT060H.grib2 2026-04-30 20:56 440K
20260430T18Z_MSC_RDPS_DewPointDepression_IsbL-0970_RLatLon0.09_PT060H.grib2 2026-04-30 20:56 431K
20260430T18Z_MSC_RDPS_DewPointDepression_IsbL-0985_RLatLon0.09_PT060H.grib2 2026-04-30 20:56 427K
20260430T18Z_MSC_RDPS_DewPointDepression_IsbL-1000_RLatLon0.09_PT060H.grib2 2026-04-30 20:56 422K
20260430T18Z_MSC_RDPS_DewPointDepression_IsbL-1015_RLatLon0.09_PT060H.grib2 2026-04-30 20:56 413K
20260430T18Z_MSC_RDPS_DewPoint_AGL-2m_RLatLon0.09_PT060H.grib2 2026-04-30 20:56 305K
20260430T18Z_MSC_RDPS_DownwardLongwaveRadiationFlux-Accum_Sfc_RLatLon0.09_PT060H.grib2 2026-04-30 20:56 406K
20260430T18Z_MSC_RDPS_DownwardShortwaveRadiationFlux-Accum_NTAtm_RLatLon0.09_PT060H.grib2 2026-04-30 20:56 96K
20260430T18Z_MSC_RDPS_DownwardShortwaveRadiationFlux-Accum_Sfc_RLatLon0.09_PT060H.grib2 2026-04-30 20:56 595K
20260430T18Z_MSC_RDPS_FreezingRain-Accum12h_Sfc_RLatLon0.09_PT060H.grib2 2026-04-30 20:56 53K
20260430T18Z_MSC_RDPS_FreezingRain-Accum1h_Sfc_RLatLon0.09_PT060H.grib2 2026-04-30 20:56 32K
20260430T18Z_MSC_RDPS_FreezingRain-Accum24h_Sfc_RLatLon0.09_PT060H.grib2 2026-04-30 20:56 106K
20260430T18Z_MSC_RDPS_FreezingRain-Accum3h_Sfc_RLatLon0.09_PT060H.grib2 2026-04-30 20:56 38K
20260430T18Z_MSC_RDPS_FreezingRain-Accum6h_Sfc_RLatLon0.09_PT060H.grib2 2026-04-30 20:56 50K
20260430T18Z_MSC_RDPS_FreezingRain-Accum_Sfc_RLatLon0.09_PT060H.grib2 2026-04-30 20:56 188K
20260430T18Z_MSC_RDPS_GeopotentialHeight_IsbL-0001_RLatLon0.09_PT060H.grib2 2026-04-30 20:56 306K
20260430T18Z_MSC_RDPS_GeopotentialHeight_IsbL-0005_RLatLon0.09_PT060H.grib2 2026-04-30 20:56 332K
20260430T18Z_MSC_RDPS_GeopotentialHeight_IsbL-0010_RLatLon0.09_PT060H.grib2 2026-04-30 20:56 301K
20260430T18Z_MSC_RDPS_GeopotentialHeight_IsbL-0020_RLatLon0.09_PT060H.grib2 2026-04-30 20:56 396K
20260430T18Z_MSC_RDPS_GeopotentialHeight_IsbL-0030_RLatLon0.09_PT060H.grib2 2026-04-30 20:56 303K
20260430T18Z_MSC_RDPS_GeopotentialHeight_IsbL-0050_RLatLon0.09_PT060H.grib2 2026-04-30 20:56 339K
20260430T18Z_MSC_RDPS_GeopotentialHeight_IsbL-0100_RLatLon0.09_PT060H.grib2 2026-04-30 20:56 284K
20260430T18Z_MSC_RDPS_GeopotentialHeight_IsbL-0150_RLatLon0.09_PT060H.grib2 2026-04-30 20:56 228K
20260430T18Z_MSC_RDPS_GeopotentialHeight_IsbL-0175_RLatLon0.09_PT060H.grib2 2026-04-30 20:56 260K
20260430T18Z_MSC_RDPS_GeopotentialHeight_IsbL-0200_RLatLon0.09_PT060H.grib2 2026-04-30 20:56 262K
20260430T18Z_MSC_RDPS_GeopotentialHeight_IsbL-0225_RLatLon0.09_PT060H.grib2 2026-04-30 20:56 263K
20260430T18Z_MSC_RDPS_GeopotentialHeight_IsbL-0250_RLatLon0.09_PT060H.grib2 2026-04-30 20:56 264K
20260430T18Z_MSC_RDPS_GeopotentialHeight_IsbL-0275_RLatLon0.09_PT060H.grib2 2026-04-30 20:56 263K
20260430T18Z_MSC_RDPS_GeopotentialHeight_IsbL-0300_RLatLon0.09_PT060H.grib2 2026-04-30 20:56 263K
20260430T18Z_MSC_RDPS_GeopotentialHeight_IsbL-0350_RLatLon0.09_PT060H.grib2 2026-04-30 20:56 229K
20260430T18Z_MSC_RDPS_GeopotentialHeight_IsbL-0400_RLatLon0.09_PT060H.grib2 2026-04-30 20:56 226K
20260430T18Z_MSC_RDPS_GeopotentialHeight_IsbL-0450_RLatLon0.09_PT060H.grib2 2026-04-30 20:56 295K
20260430T18Z_MSC_RDPS_GeopotentialHeight_IsbL-0500_RLatLon0.09_PT060H.grib2 2026-04-30 20:56 291K
20260430T18Z_MSC_RDPS_GeopotentialHeight_IsbL-0550_RLatLon0.09_PT060H.grib2 2026-04-30 20:56 287K
20260430T18Z_MSC_RDPS_GeopotentialHeight_IsbL-0600_RLatLon0.09_PT060H.grib2 2026-04-30 20:56 283K
20260430T18Z_MSC_RDPS_GeopotentialHeight_IsbL-0650_RLatLon0.09_PT060H.grib2 2026-04-30 20:56 255K
20260430T18Z_MSC_RDPS_GeopotentialHeight_IsbL-0700_RLatLon0.09_PT060H.grib2 2026-04-30 20:56 254K
20260430T18Z_MSC_RDPS_GeopotentialHeight_IsbL-0750_RLatLon0.09_PT060H.grib2 2026-04-30 20:56 338K
20260430T18Z_MSC_RDPS_GeopotentialHeight_IsbL-0800_RLatLon0.09_PT060H.grib2 2026-04-30 20:56 347K
20260430T18Z_MSC_RDPS_GeopotentialHeight_IsbL-0850_RLatLon0.09_PT060H.grib2 2026-04-30 20:56 356K
20260430T18Z_MSC_RDPS_GeopotentialHeight_IsbL-0875_RLatLon0.09_PT060H.grib2 2026-04-30 20:56 359K
20260430T18Z_MSC_RDPS_GeopotentialHeight_IsbL-0900_RLatLon0.09_PT060H.grib2 2026-04-30 20:56 362K
20260430T18Z_MSC_RDPS_GeopotentialHeight_IsbL-0925_RLatLon0.09_PT060H.grib2 2026-04-30 20:56 363K
20260430T18Z_MSC_RDPS_GeopotentialHeight_IsbL-0950_RLatLon0.09_PT060H.grib2 2026-04-30 20:56 369K
20260430T18Z_MSC_RDPS_GeopotentialHeight_IsbL-0970_RLatLon0.09_PT060H.grib2 2026-04-30 20:56 373K
20260430T18Z_MSC_RDPS_GeopotentialHeight_IsbL-0985_RLatLon0.09_PT060H.grib2 2026-04-30 20:56 381K
20260430T18Z_MSC_RDPS_GeopotentialHeight_IsbL-1000_RLatLon0.09_PT060H.grib2 2026-04-30 20:56 392K
20260430T18Z_MSC_RDPS_GeopotentialHeight_IsbL-1015_RLatLon0.09_PT060H.grib2 2026-04-30 20:56 405K
20260430T18Z_MSC_RDPS_Humidex_Sfc_RLatLon0.09_PT060H.grib2 2026-04-30 20:56 2.4M
20260430T18Z_MSC_RDPS_IcePellets-Accum12h_Sfc_RLatLon0.09_PT060H.grib2 2026-04-30 20:56 10K
20260430T18Z_MSC_RDPS_IcePellets-Accum1h_Sfc_RLatLon0.09_PT060H.grib2 2026-04-30 20:56 2.8K
20260430T18Z_MSC_RDPS_IcePellets-Accum24h_Sfc_RLatLon0.09_PT060H.grib2 2026-04-30 20:56 15K
20260430T18Z_MSC_RDPS_IcePellets-Accum3h_Sfc_RLatLon0.09_PT060H.grib2 2026-04-30 20:56 4.9K
20260430T18Z_MSC_RDPS_IcePellets-Accum6h_Sfc_RLatLon0.09_PT060H.grib2 2026-04-30 20:56 6.4K
20260430T18Z_MSC_RDPS_IcePellets-Accum_Sfc_RLatLon0.09_PT060H.grib2 2026-04-30 20:56 30K
20260430T18Z_MSC_RDPS_KIndex_Sfc_RLatLon0.09_PT060H.grib2 2026-04-30 20:56 2.5M
20260430T18Z_MSC_RDPS_LatentHeatNetFlux_Sfc_RLatLon0.09_PT060H.grib2 2026-04-30 20:56 406K
20260430T18Z_MSC_RDPS_LiftedIndex-MU-VT_IsbL-0500_RLatLon0.09_PT060H.grib2 2026-04-30 20:56 2.4M
20260430T18Z_MSC_RDPS_NetLongwaveRadiationFlux-Accum_Sfc_RLatLon0.09_PT060H.grib2 2026-04-30 20:56 585K
20260430T18Z_MSC_RDPS_NetShortwaveRadiationFlux-Accum_Sfc_RLatLon0.09_PT060H.grib2 2026-04-30 20:56 596K
20260430T18Z_MSC_RDPS_PlanetaryBoundaryLayerHeight_Sfc_RLatLon0.09_PT060H.grib2 2026-04-30 20:56 1.1M
20260430T18Z_MSC_RDPS_Precip-Accum12h_Sfc_RLatLon0.09_PT060H.grib2 2026-04-30 20:56 1.6M
20260430T18Z_MSC_RDPS_Precip-Accum1h_Sfc_RLatLon0.09_PT060H.grib2 2026-04-30 20:56 1.1M
20260430T18Z_MSC_RDPS_Precip-Accum24h_Sfc_RLatLon0.09_PT060H.grib2 2026-04-30 20:56 1.8M
20260430T18Z_MSC_RDPS_Precip-Accum3h_Sfc_RLatLon0.09_PT060H.grib2 2026-04-30 20:56 1.2M
20260430T18Z_MSC_RDPS_Precip-Accum6h_Sfc_RLatLon0.09_PT060H.grib2 2026-04-30 20:56 1.3M
20260430T18Z_MSC_RDPS_Precip-Accum_Sfc_RLatLon0.09_PT060H.grib2 2026-04-30 20:56 2.1M
20260430T18Z_MSC_RDPS_PrecipRate_Sfc_RLatLon0.09_PT060H.grib2 2026-04-30 20:56 165K
20260430T18Z_MSC_RDPS_PrecipType-Instant_Sfc_RLatLon0.09_PT060H.grib2 2026-04-30 20:56 584K
20260430T18Z_MSC_RDPS_Pressure-Trend3h_Sfc_RLatLon0.09_PT060H.grib2 2026-04-30 20:56 1.2M
20260430T18Z_MSC_RDPS_Pressure_MSL_RLatLon0.09_PT060H.grib2 2026-04-30 20:56 323K
20260430T18Z_MSC_RDPS_Pressure_PVU-1.5_RLatLon0.09_PT060H.grib2 2026-04-30 20:56 2.5M
20260430T18Z_MSC_RDPS_Pressure_PVU-1_RLatLon0.09_PT060H.grib2 2026-04-30 20:56 2.4M
20260430T18Z_MSC_RDPS_Pressure_PVU-2_RLatLon0.09_PT060H.grib2 2026-04-30 20:56 2.4M
20260430T18Z_MSC_RDPS_Pressure_Sfc_RLatLon0.09_PT060H.grib2 2026-04-30 20:56 499K
20260430T18Z_MSC_RDPS_RadiativeTemp_Sfc_RLatLon0.09_PT060H.grib2 2026-04-30 20:56 303K
20260430T18Z_MSC_RDPS_Rain-Accum12h_Sfc_RLatLon0.09_PT060H.grib2 2026-04-30 20:56 1.1M
20260430T18Z_MSC_RDPS_Rain-Accum1h_Sfc_RLatLon0.09_PT060H.grib2 2026-04-30 20:56 496K
20260430T18Z_MSC_RDPS_Rain-Accum24h_Sfc_RLatLon0.09_PT060H.grib2 2026-04-30 20:56 1.3M
20260430T18Z_MSC_RDPS_Rain-Accum3h_Sfc_RLatLon0.09_PT060H.grib2 2026-04-30 20:56 587K
20260430T18Z_MSC_RDPS_Rain-Accum6h_Sfc_RLatLon0.09_PT060H.grib2 2026-04-30 20:56 875K
20260430T18Z_MSC_RDPS_Rain-Accum_Sfc_RLatLon0.09_PT060H.grib2 2026-04-30 20:56 1.7M
20260430T18Z_MSC_RDPS_RelativeHumidity_AGL-2m_RLatLon0.09_PT060H.grib2 2026-04-30 20:56 1.0M
20260430T18Z_MSC_RDPS_RelativeHumidity_IsbL-0010_RLatLon0.09_PT060H.grib2 2026-04-30 20:56 616K
20260430T18Z_MSC_RDPS_RelativeHumidity_IsbL-0020_RLatLon0.09_PT060H.grib2 2026-04-30 20:56 661K
20260430T18Z_MSC_RDPS_RelativeHumidity_IsbL-0030_RLatLon0.09_PT060H.grib2 2026-04-30 20:56 603K
20260430T18Z_MSC_RDPS_RelativeHumidity_IsbL-0050_RLatLon0.09_PT060H.grib2 2026-04-30 20:56 308K
20260430T18Z_MSC_RDPS_RelativeHumidity_IsbL-0100_RLatLon0.09_PT060H.grib2 2026-04-30 20:56 278K
20260430T18Z_MSC_RDPS_RelativeHumidity_IsbL-0150_RLatLon0.09_PT060H.grib2 2026-04-30 20:56 412K
20260430T18Z_MSC_RDPS_RelativeHumidity_IsbL-0175_RLatLon0.09_PT060H.grib2 2026-04-30 20:56 474K
20260430T18Z_MSC_RDPS_RelativeHumidity_IsbL-0200_RLatLon0.09_PT060H.grib2 2026-04-30 20:56 548K
20260430T18Z_MSC_RDPS_RelativeHumidity_IsbL-0225_RLatLon0.09_PT060H.grib2 2026-04-30 20:56 612K
20260430T18Z_MSC_RDPS_RelativeHumidity_IsbL-0250_RLatLon0.09_PT060H.grib2 2026-04-30 20:56 676K
20260430T18Z_MSC_RDPS_RelativeHumidity_IsbL-0275_RLatLon0.09_PT060H.grib2 2026-04-30 20:56 702K
20260430T18Z_MSC_RDPS_RelativeHumidity_IsbL-0300_RLatLon0.09_PT060H.grib2 2026-04-30 20:56 744K
20260430T18Z_MSC_RDPS_RelativeHumidity_IsbL-0350_RLatLon0.09_PT060H.grib2 2026-04-30 20:56 774K
20260430T18Z_MSC_RDPS_RelativeHumidity_IsbL-0400_RLatLon0.09_PT060H.grib2 2026-04-30 20:56 789K
20260430T18Z_MSC_RDPS_RelativeHumidity_IsbL-0450_RLatLon0.09_PT060H.grib2 2026-04-30 20:56 795K
20260430T18Z_MSC_RDPS_RelativeHumidity_IsbL-0500_RLatLon0.09_PT060H.grib2 2026-04-30 20:56 799K
20260430T18Z_MSC_RDPS_RelativeHumidity_IsbL-0550_RLatLon0.09_PT060H.grib2 2026-04-30 20:56 819K
20260430T18Z_MSC_RDPS_RelativeHumidity_IsbL-0600_RLatLon0.09_PT060H.grib2 2026-04-30 20:56 841K
20260430T18Z_MSC_RDPS_RelativeHumidity_IsbL-0650_RLatLon0.09_PT060H.grib2 2026-04-30 20:56 854K
20260430T18Z_MSC_RDPS_RelativeHumidity_IsbL-0700_RLatLon0.09_PT060H.grib2 2026-04-30 20:56 876K
20260430T18Z_MSC_RDPS_RelativeHumidity_IsbL-0750_RLatLon0.09_PT060H.grib2 2026-04-30 20:56 918K
20260430T18Z_MSC_RDPS_RelativeHumidity_IsbL-0800_RLatLon0.09_PT060H.grib2 2026-04-30 20:56 1.0M
20260430T18Z_MSC_RDPS_RelativeHumidity_IsbL-0850_RLatLon0.09_PT060H.grib2 2026-04-30 20:56 1.0M
20260430T18Z_MSC_RDPS_RelativeHumidity_IsbL-0875_RLatLon0.09_PT060H.grib2 2026-04-30 20:56 1.1M
20260430T18Z_MSC_RDPS_RelativeHumidity_IsbL-0900_RLatLon0.09_PT060H.grib2 2026-04-30 20:56 1.1M
20260430T18Z_MSC_RDPS_RelativeHumidity_IsbL-0925_RLatLon0.09_PT060H.grib2 2026-04-30 20:56 1.1M
20260430T18Z_MSC_RDPS_RelativeHumidity_IsbL-0950_RLatLon0.09_PT060H.grib2 2026-04-30 20:56 1.1M
20260430T18Z_MSC_RDPS_RelativeHumidity_IsbL-0970_RLatLon0.09_PT060H.grib2 2026-04-30 20:56 1.0M
20260430T18Z_MSC_RDPS_RelativeHumidity_IsbL-0985_RLatLon0.09_PT060H.grib2 2026-04-30 20:56 1.0M
20260430T18Z_MSC_RDPS_RelativeHumidity_IsbL-1000_RLatLon0.09_PT060H.grib2 2026-04-30 20:56 1.0M
20260430T18Z_MSC_RDPS_RelativeHumidity_IsbL-1015_RLatLon0.09_PT060H.grib2 2026-04-30 20:56 1.0M
20260430T18Z_MSC_RDPS_Runoff-Accum_Sfc_RLatLon0.09_PT060H.grib2 2026-04-30 20:56 64K
20260430T18Z_MSC_RDPS_SWEATIndex_Sfc_RLatLon0.09_PT060H.grib2 2026-04-30 20:56 2.4M
20260430T18Z_MSC_RDPS_SeeingIndex_EAtm_RLatLon0.09_PT060H.grib2 2026-04-30 20:56 1.0M
20260430T18Z_MSC_RDPS_SensibleHeatNetFlux_Sfc_RLatLon0.09_PT060H.grib2 2026-04-30 20:56 291K
20260430T18Z_MSC_RDPS_ShowalterIndex_IsbL-0500_RLatLon0.09_PT060H.grib2 2026-04-30 20:56 2.6M
20260430T18Z_MSC_RDPS_SkyTransparencyIndex_EAtm_RLatLon0.09_PT060H.grib2 2026-04-30 20:56 707K
20260430T18Z_MSC_RDPS_Snow-Accum12h_Sfc_RLatLon0.09_PT060H.grib2 2026-04-30 20:56 557K
20260430T18Z_MSC_RDPS_Snow-Accum1h_Sfc_RLatLon0.09_PT060H.grib2 2026-04-30 20:56 457K
20260430T18Z_MSC_RDPS_Snow-Accum24h_Sfc_RLatLon0.09_PT060H.grib2 2026-04-30 20:56 644K
20260430T18Z_MSC_RDPS_Snow-Accum3h_Sfc_RLatLon0.09_PT060H.grib2 2026-04-30 20:56 387K
20260430T18Z_MSC_RDPS_Snow-Accum6h_Sfc_RLatLon0.09_PT060H.grib2 2026-04-30 20:56 518K
20260430T18Z_MSC_RDPS_Snow-Accum_Sfc_RLatLon0.09_PT060H.grib2 2026-04-30 20:56 741K
20260430T18Z_MSC_RDPS_SnowDensity_Sfc_RLatLon0.09_PT060H.grib2 2026-04-30 20:56 174K
20260430T18Z_MSC_RDPS_SnowDepth_Sfc_RLatLon0.09_PT060H.grib2 2026-04-30 20:56 660K
20260430T18Z_MSC_RDPS_SoilTemp_DBS-0to10cm_RLatLon0.09_PT060H.grib2 2026-04-30 20:56 243K
20260430T18Z_MSC_RDPS_SoilTemp_Sfc_RLatLon0.09_PT060H.grib2 2026-04-30 20:56 283K
20260430T18Z_MSC_RDPS_SoilVolumetricIceContent_Sfc_RLatLon0.09_PT060H.grib2 2026-04-30 20:56 158K
20260430T18Z_MSC_RDPS_SoilVolumetricWaterContent_DBS-0to10cm_RLatLon0.09_PT060H.grib2 2026-04-30 20:56 273K
20260430T18Z_MSC_RDPS_SoilVolumetricWaterContent_DBS-0to1cm_RLatLon0.09_PT060H.grib2 2026-04-30 20:56 343K
20260430T18Z_MSC_RDPS_SpecificHumidity_AGL-120m_RLatLon0.09_PT060H.grib2 2026-04-30 20:56 487K
20260430T18Z_MSC_RDPS_SpecificHumidity_AGL-2m_RLatLon0.09_PT060H.grib2 2026-04-30 20:56 651K
20260430T18Z_MSC_RDPS_SpecificHumidity_AGL-40m_RLatLon0.09_PT060H.grib2 2026-04-30 20:56 492K
20260430T18Z_MSC_RDPS_SpecificHumidity_AGL-80m_RLatLon0.09_PT060H.grib2 2026-04-30 20:56 488K
20260430T18Z_MSC_RDPS_SpecificHumidity_IsbL-0001_RLatLon0.09_PT060H.grib2 2026-04-30 20:56 357K
20260430T18Z_MSC_RDPS_SpecificHumidity_IsbL-0005_RLatLon0.09_PT060H.grib2 2026-04-30 20:56 361K
20260430T18Z_MSC_RDPS_SpecificHumidity_IsbL-0010_RLatLon0.09_PT060H.grib2 2026-04-30 20:56 393K
20260430T18Z_MSC_RDPS_SpecificHumidity_IsbL-0020_RLatLon0.09_PT060H.grib2 2026-04-30 20:56 375K
20260430T18Z_MSC_RDPS_SpecificHumidity_IsbL-0030_RLatLon0.09_PT060H.grib2 2026-04-30 20:56 475K
20260430T18Z_MSC_RDPS_SpecificHumidity_IsbL-0050_RLatLon0.09_PT060H.grib2 2026-04-30 20:56 475K
20260430T18Z_MSC_RDPS_SpecificHumidity_IsbL-0100_RLatLon0.09_PT060H.grib2 2026-04-30 20:56 421K
20260430T18Z_MSC_RDPS_SpecificHumidity_IsbL-0150_RLatLon0.09_PT060H.grib2 2026-04-30 20:56 454K
20260430T18Z_MSC_RDPS_SpecificHumidity_IsbL-0175_RLatLon0.09_PT060H.grib2 2026-04-30 20:56 537K
20260430T18Z_MSC_RDPS_SpecificHumidity_IsbL-0200_RLatLon0.09_PT060H.grib2 2026-04-30 20:56 447K
20260430T18Z_MSC_RDPS_SpecificHumidity_IsbL-0225_RLatLon0.09_PT060H.grib2 2026-04-30 20:56 447K
20260430T18Z_MSC_RDPS_SpecificHumidity_IsbL-0250_RLatLon0.09_PT060H.grib2 2026-04-30 20:56 507K
20260430T18Z_MSC_RDPS_SpecificHumidity_IsbL-0275_RLatLon0.09_PT060H.grib2 2026-04-30 20:56 467K
20260430T18Z_MSC_RDPS_SpecificHumidity_IsbL-0300_RLatLon0.09_PT060H.grib2 2026-04-30 20:56 441K
20260430T18Z_MSC_RDPS_SpecificHumidity_IsbL-0350_RLatLon0.09_PT060H.grib2 2026-04-30 20:56 566K
20260430T18Z_MSC_RDPS_SpecificHumidity_IsbL-0400_RLatLon0.09_PT060H.grib2 2026-04-30 20:56 522K
20260430T18Z_MSC_RDPS_SpecificHumidity_IsbL-0450_RLatLon0.09_PT060H.grib2 2026-04-30 20:56 573K
20260430T18Z_MSC_RDPS_SpecificHumidity_IsbL-0500_RLatLon0.09_PT060H.grib2 2026-04-30 20:56 506K
20260430T18Z_MSC_RDPS_SpecificHumidity_IsbL-0550_RLatLon0.09_PT060H.grib2 2026-04-30 20:56 581K
20260430T18Z_MSC_RDPS_SpecificHumidity_IsbL-0600_RLatLon0.09_PT060H.grib2 2026-04-30 20:56 634K
20260430T18Z_MSC_RDPS_SpecificHumidity_IsbL-0650_RLatLon0.09_PT060H.grib2 2026-04-30 20:56 551K
20260430T18Z_MSC_RDPS_SpecificHumidity_IsbL-0700_RLatLon0.09_PT060H.grib2 2026-04-30 20:56 593K
20260430T18Z_MSC_RDPS_SpecificHumidity_IsbL-0750_RLatLon0.09_PT060H.grib2 2026-04-30 20:56 642K
20260430T18Z_MSC_RDPS_SpecificHumidity_IsbL-0800_RLatLon0.09_PT060H.grib2 2026-04-30 20:56 721K
20260430T18Z_MSC_RDPS_SpecificHumidity_IsbL-0850_RLatLon0.09_PT060H.grib2 2026-04-30 20:56 798K
20260430T18Z_MSC_RDPS_SpecificHumidity_IsbL-0875_RLatLon0.09_PT060H.grib2 2026-04-30 20:56 828K
20260430T18Z_MSC_RDPS_SpecificHumidity_IsbL-0900_RLatLon0.09_PT060H.grib2 2026-04-30 20:56 841K
20260430T18Z_MSC_RDPS_SpecificHumidity_IsbL-0925_RLatLon0.09_PT060H.grib2 2026-04-30 20:56 838K
20260430T18Z_MSC_RDPS_SpecificHumidity_IsbL-0950_RLatLon0.09_PT060H.grib2 2026-04-30 20:56 838K
20260430T18Z_MSC_RDPS_SpecificHumidity_IsbL-0970_RLatLon0.09_PT060H.grib2 2026-04-30 20:56 688K
20260430T18Z_MSC_RDPS_SpecificHumidity_IsbL-0985_RLatLon0.09_PT060H.grib2 2026-04-30 20:56 682K
20260430T18Z_MSC_RDPS_SpecificHumidity_IsbL-1000_RLatLon0.09_PT060H.grib2 2026-04-30 20:56 676K
20260430T18Z_MSC_RDPS_SpecificHumidity_IsbL-1015_RLatLon0.09_PT060H.grib2 2026-04-30 20:56 664K
20260430T18Z_MSC_RDPS_SpecificHumidity_Sfc_RLatLon0.09_PT060H.grib2 2026-04-30 20:56 298K
20260430T18Z_MSC_RDPS_StormRelativeHelicity_EtaL-10000_RLatLon0.09_PT060H.grib2 2026-04-30 20:56 1.1M
20260430T18Z_MSC_RDPS_StormSeverityIndex_EtaL-10000_RLatLon0.09_PT060H.grib2 2026-04-30 20:56 1.2M
20260430T18Z_MSC_RDPS_Thickness_IsbL-0850to0700_RLatLon0.09_PT060H.grib2 2026-04-30 20:56 176K
20260430T18Z_MSC_RDPS_Thickness_IsbL-1000to0500_RLatLon0.09_PT060H.grib2 2026-04-30 20:56 196K
20260430T18Z_MSC_RDPS_Thickness_IsbL-1000to0850_RLatLon0.09_PT060H.grib2 2026-04-30 20:56 259K
20260430T18Z_MSC_RDPS_TotalCloudCover_Sfc_RLatLon0.09_PT060H.grib2 2026-04-30 20:56 656K
20260430T18Z_MSC_RDPS_TotalTotalsIndex_Sfc_RLatLon0.09_PT060H.grib2 2026-04-30 20:56 2.4M
20260430T18Z_MSC_RDPS_UVIndex-ClearSky_Sfc_RLatLon0.09_PT060H.grib2 2026-04-30 20:56 126K
20260430T18Z_MSC_RDPS_UVIndex_Sfc_RLatLon0.09_PT060H.grib2 2026-04-30 20:56 205K
20260430T18Z_MSC_RDPS_UpwardLongwaveRadiationFlux_NTAtm_RLatLon0.09_PT060H.grib2 2026-04-30 20:56 483K
20260430T18Z_MSC_RDPS_UpwardShortwaveRadiationFlux_NTAtm_RLatLon0.09_PT060H.grib2 2026-04-30 20:56 176K
20260430T18Z_MSC_RDPS_VerticalVelocity_IsbL-0250_RLatLon0.09_PT060H.grib2 2026-04-30 20:56 430K
20260430T18Z_MSC_RDPS_VerticalVelocity_IsbL-0500_RLatLon0.09_PT060H.grib2 2026-04-30 20:56 538K
20260430T18Z_MSC_RDPS_VerticalVelocity_IsbL-0700_RLatLon0.09_PT060H.grib2 2026-04-30 20:56 590K
20260430T18Z_MSC_RDPS_VerticalVelocity_IsbL-0850_RLatLon0.09_PT060H.grib2 2026-04-30 20:56 690K
20260430T18Z_MSC_RDPS_VerticalWindShear_EtaL-6500_RLatLon0.09_PT060H.grib2 2026-04-30 20:56 1.2M
20260430T18Z_MSC_RDPS_WindChill_Sfc_RLatLon0.09_PT060H.grib2 2026-04-30 20:56 1.2M
20260430T18Z_MSC_RDPS_WindDir_AGL-10m_RLatLon0.09_PT060H.grib2 2026-04-30 20:56 956K
20260430T18Z_MSC_RDPS_WindDir_AGL-120m_RLatLon0.09_PT060H.grib2 2026-04-30 20:56 591K
20260430T18Z_MSC_RDPS_WindDir_AGL-40m_RLatLon0.09_PT060H.grib2 2026-04-30 20:56 624K
20260430T18Z_MSC_RDPS_WindDir_AGL-80m_RLatLon0.09_PT060H.grib2 2026-04-30 20:56 603K
20260430T18Z_MSC_RDPS_WindDir_IsbL-0001_RLatLon0.09_PT060H.grib2 2026-04-30 20:56 315K
20260430T18Z_MSC_RDPS_WindDir_IsbL-0005_RLatLon0.09_PT060H.grib2 2026-04-30 20:56 395K
20260430T18Z_MSC_RDPS_WindDir_IsbL-0010_RLatLon0.09_PT060H.grib2 2026-04-30 20:56 395K
20260430T18Z_MSC_RDPS_WindDir_IsbL-0020_RLatLon0.09_PT060H.grib2 2026-04-30 20:56 434K
20260430T18Z_MSC_RDPS_WindDir_IsbL-0030_RLatLon0.09_PT060H.grib2 2026-04-30 20:56 424K
20260430T18Z_MSC_RDPS_WindDir_IsbL-0050_RLatLon0.09_PT060H.grib2 2026-04-30 20:56 416K
20260430T18Z_MSC_RDPS_WindDir_IsbL-0100_RLatLon0.09_PT060H.grib2 2026-04-30 20:56 414K
20260430T18Z_MSC_RDPS_WindDir_IsbL-0150_RLatLon0.09_PT060H.grib2 2026-04-30 20:56 406K
20260430T18Z_MSC_RDPS_WindDir_IsbL-0175_RLatLon0.09_PT060H.grib2 2026-04-30 20:56 428K
20260430T18Z_MSC_RDPS_WindDir_IsbL-0200_RLatLon0.09_PT060H.grib2 2026-04-30 20:56 439K
20260430T18Z_MSC_RDPS_WindDir_IsbL-0225_RLatLon0.09_PT060H.grib2 2026-04-30 20:56 446K
20260430T18Z_MSC_RDPS_WindDir_IsbL-0250_RLatLon0.09_PT060H.grib2 2026-04-30 20:56 447K
20260430T18Z_MSC_RDPS_WindDir_IsbL-0275_RLatLon0.09_PT060H.grib2 2026-04-30 20:56 473K
20260430T18Z_MSC_RDPS_WindDir_IsbL-0300_RLatLon0.09_PT060H.grib2 2026-04-30 20:56 472K
20260430T18Z_MSC_RDPS_WindDir_IsbL-0350_RLatLon0.09_PT060H.grib2 2026-04-30 20:56 500K
20260430T18Z_MSC_RDPS_WindDir_IsbL-0400_RLatLon0.09_PT060H.grib2 2026-04-30 20:56 519K
20260430T18Z_MSC_RDPS_WindDir_IsbL-0450_RLatLon0.09_PT060H.grib2 2026-04-30 20:56 528K
20260430T18Z_MSC_RDPS_WindDir_IsbL-0500_RLatLon0.09_PT060H.grib2 2026-04-30 20:56 535K
20260430T18Z_MSC_RDPS_WindDir_IsbL-0550_RLatLon0.09_PT060H.grib2 2026-04-30 20:56 549K
20260430T18Z_MSC_RDPS_WindDir_IsbL-0600_RLatLon0.09_PT060H.grib2 2026-04-30 20:56 570K
20260430T18Z_MSC_RDPS_WindDir_IsbL-0650_RLatLon0.09_PT060H.grib2 2026-04-30 20:56 604K
20260430T18Z_MSC_RDPS_WindDir_IsbL-0700_RLatLon0.09_PT060H.grib2 2026-04-30 20:56 646K
20260430T18Z_MSC_RDPS_WindDir_IsbL-0750_RLatLon0.09_PT060H.grib2 2026-04-30 20:56 686K
20260430T18Z_MSC_RDPS_WindDir_IsbL-0800_RLatLon0.09_PT060H.grib2 2026-04-30 20:56 756K
20260430T18Z_MSC_RDPS_WindDir_IsbL-0850_RLatLon0.09_PT060H.grib2 2026-04-30 20:56 848K
20260430T18Z_MSC_RDPS_WindDir_IsbL-0875_RLatLon0.09_PT060H.grib2 2026-04-30 20:56 881K
20260430T18Z_MSC_RDPS_WindDir_IsbL-0900_RLatLon0.09_PT060H.grib2 2026-04-30 20:56 896K
20260430T18Z_MSC_RDPS_WindDir_IsbL-0925_RLatLon0.09_PT060H.grib2 2026-04-30 20:56 906K
20260430T18Z_MSC_RDPS_WindDir_IsbL-0950_RLatLon0.09_PT060H.grib2 2026-04-30 20:56 905K
20260430T18Z_MSC_RDPS_WindDir_IsbL-0970_RLatLon0.09_PT060H.grib2 2026-04-30 20:56 915K
20260430T18Z_MSC_RDPS_WindDir_IsbL-0985_RLatLon0.09_PT060H.grib2 2026-04-30 20:56 922K
20260430T18Z_MSC_RDPS_WindDir_IsbL-1000_RLatLon0.09_PT060H.grib2 2026-04-30 20:56 932K
20260430T18Z_MSC_RDPS_WindDir_IsbL-1015_RLatLon0.09_PT060H.grib2 2026-04-30 20:56 948K
20260430T18Z_MSC_RDPS_WindGust-Max_AGL-10m_RLatLon0.09_PT060H.grib2 2026-04-30 20:56 1.0M
20260430T18Z_MSC_RDPS_WindGust-Min_AGL-10m_RLatLon0.09_PT060H.grib2 2026-04-30 20:56 968K
20260430T18Z_MSC_RDPS_WindGust_AGL-10m_RLatLon0.09_PT060H.grib2 2026-04-30 20:56 1.0M
20260430T18Z_MSC_RDPS_WindSpeed_AGL-10m_RLatLon0.09_PT060H.grib2 2026-04-30 20:56 836K
20260430T18Z_MSC_RDPS_WindSpeed_AGL-120m_RLatLon0.09_PT060H.grib2 2026-04-30 20:56 539K
20260430T18Z_MSC_RDPS_WindSpeed_AGL-40m_RLatLon0.09_PT060H.grib2 2026-04-30 20:56 540K
20260430T18Z_MSC_RDPS_WindSpeed_AGL-80m_RLatLon0.09_PT060H.grib2 2026-04-30 20:56 539K
20260430T18Z_MSC_RDPS_WindSpeed_IsbL-0001_RLatLon0.09_PT060H.grib2 2026-04-30 20:56 330K
20260430T18Z_MSC_RDPS_WindSpeed_IsbL-0005_RLatLon0.09_PT060H.grib2 2026-04-30 20:56 385K
20260430T18Z_MSC_RDPS_WindSpeed_IsbL-0010_RLatLon0.09_PT060H.grib2 2026-04-30 20:56 363K
20260430T18Z_MSC_RDPS_WindSpeed_IsbL-0020_RLatLon0.09_PT060H.grib2 2026-04-30 20:56 417K
20260430T18Z_MSC_RDPS_WindSpeed_IsbL-0030_RLatLon0.09_PT060H.grib2 2026-04-30 20:56 319K
20260430T18Z_MSC_RDPS_WindSpeed_IsbL-0050_RLatLon0.09_PT060H.grib2 2026-04-30 20:56 351K
20260430T18Z_MSC_RDPS_WindSpeed_IsbL-0100_RLatLon0.09_PT060H.grib2 2026-04-30 20:56 475K
20260430T18Z_MSC_RDPS_WindSpeed_IsbL-0150_RLatLon0.09_PT060H.grib2 2026-04-30 20:56 380K
20260430T18Z_MSC_RDPS_WindSpeed_IsbL-0175_RLatLon0.09_PT060H.grib2 2026-04-30 20:56 426K
20260430T18Z_MSC_RDPS_WindSpeed_IsbL-0200_RLatLon0.09_PT060H.grib2 2026-04-30 20:56 442K
20260430T18Z_MSC_RDPS_WindSpeed_IsbL-0225_RLatLon0.09_PT060H.grib2 2026-04-30 20:56 447K
20260430T18Z_MSC_RDPS_WindSpeed_IsbL-0250_RLatLon0.09_PT060H.grib2 2026-04-30 20:56 449K
20260430T18Z_MSC_RDPS_WindSpeed_IsbL-0275_RLatLon0.09_PT060H.grib2 2026-04-30 20:56 468K
20260430T18Z_MSC_RDPS_WindSpeed_IsbL-0300_RLatLon0.09_PT060H.grib2 2026-04-30 20:56 466K
20260430T18Z_MSC_RDPS_WindSpeed_IsbL-0350_RLatLon0.09_PT060H.grib2 2026-04-30 20:56 475K
20260430T18Z_MSC_RDPS_WindSpeed_IsbL-0400_RLatLon0.09_PT060H.grib2 2026-04-30 20:56 465K
20260430T18Z_MSC_RDPS_WindSpeed_IsbL-0450_RLatLon0.09_PT060H.grib2 2026-04-30 20:56 464K
20260430T18Z_MSC_RDPS_WindSpeed_IsbL-0500_RLatLon0.09_PT060H.grib2 2026-04-30 20:56 463K
20260430T18Z_MSC_RDPS_WindSpeed_IsbL-0550_RLatLon0.09_PT060H.grib2 2026-04-30 20:56 583K
20260430T18Z_MSC_RDPS_WindSpeed_IsbL-0600_RLatLon0.09_PT060H.grib2 2026-04-30 20:56 591K
20260430T18Z_MSC_RDPS_WindSpeed_IsbL-0650_RLatLon0.09_PT060H.grib2 2026-04-30 20:56 610K
20260430T18Z_MSC_RDPS_WindSpeed_IsbL-0700_RLatLon0.09_PT060H.grib2 2026-04-30 20:56 677K
20260430T18Z_MSC_RDPS_WindSpeed_IsbL-0750_RLatLon0.09_PT060H.grib2 2026-04-30 20:56 661K
20260430T18Z_MSC_RDPS_WindSpeed_IsbL-0800_RLatLon0.09_PT060H.grib2 2026-04-30 20:56 752K
20260430T18Z_MSC_RDPS_WindSpeed_IsbL-0850_RLatLon0.09_PT060H.grib2 2026-04-30 20:56 814K
20260430T18Z_MSC_RDPS_WindSpeed_IsbL-0875_RLatLon0.09_PT060H.grib2 2026-04-30 20:56 840K
20260430T18Z_MSC_RDPS_WindSpeed_IsbL-0900_RLatLon0.09_PT060H.grib2 2026-04-30 20:56 854K
20260430T18Z_MSC_RDPS_WindSpeed_IsbL-0925_RLatLon0.09_PT060H.grib2 2026-04-30 20:56 865K
20260430T18Z_MSC_RDPS_WindSpeed_IsbL-0950_RLatLon0.09_PT060H.grib2 2026-04-30 20:56 862K
20260430T18Z_MSC_RDPS_WindSpeed_IsbL-0970_RLatLon0.09_PT060H.grib2 2026-04-30 20:56 864K
20260430T18Z_MSC_RDPS_WindSpeed_IsbL-0985_RLatLon0.09_PT060H.grib2 2026-04-30 20:56 856K
20260430T18Z_MSC_RDPS_WindSpeed_IsbL-1000_RLatLon0.09_PT060H.grib2 2026-04-30 20:56 847K
20260430T18Z_MSC_RDPS_WindSpeed_IsbL-1015_RLatLon0.09_PT060H.grib2 2026-04-30 20:56 836K
20260430T18Z_MSC_RDPS_WindU_AGL-10m_RLatLon0.09_PT060H.grib2 2026-04-30 20:56 428K
20260430T18Z_MSC_RDPS_WindU_AGL-120m_RLatLon0.09_PT060H.grib2 2026-04-30 20:56 417K
20260430T18Z_MSC_RDPS_WindU_AGL-40m_RLatLon0.09_PT060H.grib2 2026-04-30 20:56 535K
20260430T18Z_MSC_RDPS_WindU_AGL-80m_RLatLon0.09_PT060H.grib2 2026-04-30 20:56 534K
20260430T18Z_MSC_RDPS_WindU_IsbL-0001_RLatLon0.09_PT060H.grib2 2026-04-30 20:56 240K
20260430T18Z_MSC_RDPS_WindU_IsbL-0005_RLatLon0.09_PT060H.grib2 2026-04-30 20:56 283K
20260430T18Z_MSC_RDPS_WindU_IsbL-0010_RLatLon0.09_PT060H.grib2 2026-04-30 20:56 294K
20260430T18Z_MSC_RDPS_WindU_IsbL-0020_RLatLon0.09_PT060H.grib2 2026-04-30 20:56 311K
20260430T18Z_MSC_RDPS_WindU_IsbL-0030_RLatLon0.09_PT060H.grib2 2026-04-30 20:56 314K
20260430T18Z_MSC_RDPS_WindU_IsbL-0050_RLatLon0.09_PT060H.grib2 2026-04-30 20:56 380K
20260430T18Z_MSC_RDPS_WindU_IsbL-0100_RLatLon0.09_PT060H.grib2 2026-04-30 20:56 431K
20260430T18Z_MSC_RDPS_WindU_IsbL-0150_RLatLon0.09_PT060H.grib2 2026-04-30 20:56 395K
20260430T18Z_MSC_RDPS_WindU_IsbL-0175_RLatLon0.09_PT060H.grib2 2026-04-30 20:56 418K
20260430T18Z_MSC_RDPS_WindU_IsbL-0200_RLatLon0.09_PT060H.grib2 2026-04-30 20:56 336K
20260430T18Z_MSC_RDPS_WindU_IsbL-0225_RLatLon0.09_PT060H.grib2 2026-04-30 20:56 340K
20260430T18Z_MSC_RDPS_WindU_IsbL-0250_RLatLon0.09_PT060H.grib2 2026-04-30 20:56 341K
20260430T18Z_MSC_RDPS_WindU_IsbL-0275_RLatLon0.09_PT060H.grib2 2026-04-30 20:56 357K
20260430T18Z_MSC_RDPS_WindU_IsbL-0300_RLatLon0.09_PT060H.grib2 2026-04-30 20:56 354K
20260430T18Z_MSC_RDPS_WindU_IsbL-0350_RLatLon0.09_PT060H.grib2 2026-04-30 20:56 362K
20260430T18Z_MSC_RDPS_WindU_IsbL-0400_RLatLon0.09_PT060H.grib2 2026-04-30 20:56 471K
20260430T18Z_MSC_RDPS_WindU_IsbL-0450_RLatLon0.09_PT060H.grib2 2026-04-30 20:56 470K
20260430T18Z_MSC_RDPS_WindU_IsbL-0500_RLatLon0.09_PT060H.grib2 2026-04-30 20:56 471K
20260430T18Z_MSC_RDPS_WindU_IsbL-0550_RLatLon0.09_PT060H.grib2 2026-04-30 20:56 472K
20260430T18Z_MSC_RDPS_WindU_IsbL-0600_RLatLon0.09_PT060H.grib2 2026-04-30 20:56 480K
20260430T18Z_MSC_RDPS_WindU_IsbL-0650_RLatLon0.09_PT060H.grib2 2026-04-30 20:56 481K
20260430T18Z_MSC_RDPS_WindU_IsbL-0700_RLatLon0.09_PT060H.grib2 2026-04-30 20:56 503K
20260430T18Z_MSC_RDPS_WindU_IsbL-0750_RLatLon0.09_PT060H.grib2 2026-04-30 20:56 526K
20260430T18Z_MSC_RDPS_WindU_IsbL-0800_RLatLon0.09_PT060H.grib2 2026-04-30 20:56 568K
20260430T18Z_MSC_RDPS_WindU_IsbL-0850_RLatLon0.09_PT060H.grib2 2026-04-30 20:56 623K
20260430T18Z_MSC_RDPS_WindU_IsbL-0875_RLatLon0.09_PT060H.grib2 2026-04-30 20:56 645K
20260430T18Z_MSC_RDPS_WindU_IsbL-0900_RLatLon0.09_PT060H.grib2 2026-04-30 20:56 655K
20260430T18Z_MSC_RDPS_WindU_IsbL-0925_RLatLon0.09_PT060H.grib2 2026-04-30 20:56 662K
20260430T18Z_MSC_RDPS_WindU_IsbL-0950_RLatLon0.09_PT060H.grib2 2026-04-30 20:56 658K
20260430T18Z_MSC_RDPS_WindU_IsbL-0970_RLatLon0.09_PT060H.grib2 2026-04-30 20:56 657K
20260430T18Z_MSC_RDPS_WindU_IsbL-0985_RLatLon0.09_PT060H.grib2 2026-04-30 20:56 650K
20260430T18Z_MSC_RDPS_WindU_IsbL-1000_RLatLon0.09_PT060H.grib2 2026-04-30 20:56 644K
20260430T18Z_MSC_RDPS_WindU_IsbL-1015_RLatLon0.09_PT060H.grib2 2026-04-30 20:56 775K
20260430T18Z_MSC_RDPS_WindV_AGL-10m_RLatLon0.09_PT060H.grib2 2026-04-30 20:56 430K
20260430T18Z_MSC_RDPS_WindV_AGL-120m_RLatLon0.09_PT060H.grib2 2026-04-30 20:56 418K
20260430T18Z_MSC_RDPS_WindV_AGL-40m_RLatLon0.09_PT060H.grib2 2026-04-30 20:56 537K
20260430T18Z_MSC_RDPS_WindV_AGL-80m_RLatLon0.09_PT060H.grib2 2026-04-30 20:56 535K
20260430T18Z_MSC_RDPS_WindV_IsbL-0001_RLatLon0.09_PT060H.grib2 2026-04-30 20:56 245K
20260430T18Z_MSC_RDPS_WindV_IsbL-0005_RLatLon0.09_PT060H.grib2 2026-04-30 20:56 287K
20260430T18Z_MSC_RDPS_WindV_IsbL-0010_RLatLon0.09_PT060H.grib2 2026-04-30 20:56 389K
20260430T18Z_MSC_RDPS_WindV_IsbL-0020_RLatLon0.09_PT060H.grib2 2026-04-30 20:56 315K
20260430T18Z_MSC_RDPS_WindV_IsbL-0030_RLatLon0.09_PT060H.grib2 2026-04-30 20:56 316K
20260430T18Z_MSC_RDPS_WindV_IsbL-0050_RLatLon0.09_PT060H.grib2 2026-04-30 20:56 344K
20260430T18Z_MSC_RDPS_WindV_IsbL-0100_RLatLon0.09_PT060H.grib2 2026-04-30 20:56 334K
20260430T18Z_MSC_RDPS_WindV_IsbL-0150_RLatLon0.09_PT060H.grib2 2026-04-30 20:56 396K
20260430T18Z_MSC_RDPS_WindV_IsbL-0175_RLatLon0.09_PT060H.grib2 2026-04-30 20:56 419K
20260430T18Z_MSC_RDPS_WindV_IsbL-0200_RLatLon0.09_PT060H.grib2 2026-04-30 20:56 336K
20260430T18Z_MSC_RDPS_WindV_IsbL-0225_RLatLon0.09_PT060H.grib2 2026-04-30 20:56 339K
20260430T18Z_MSC_RDPS_WindV_IsbL-0250_RLatLon0.09_PT060H.grib2 2026-04-30 20:56 340K
20260430T18Z_MSC_RDPS_WindV_IsbL-0275_RLatLon0.09_PT060H.grib2 2026-04-30 20:56 356K
20260430T18Z_MSC_RDPS_WindV_IsbL-0300_RLatLon0.09_PT060H.grib2 2026-04-30 20:56 353K
20260430T18Z_MSC_RDPS_WindV_IsbL-0350_RLatLon0.09_PT060H.grib2 2026-04-30 20:56 359K
20260430T18Z_MSC_RDPS_WindV_IsbL-0400_RLatLon0.09_PT060H.grib2 2026-04-30 20:56 365K
20260430T18Z_MSC_RDPS_WindV_IsbL-0450_RLatLon0.09_PT060H.grib2 2026-04-30 20:56 468K
20260430T18Z_MSC_RDPS_WindV_IsbL-0500_RLatLon0.09_PT060H.grib2 2026-04-30 20:56 468K
20260430T18Z_MSC_RDPS_WindV_IsbL-0550_RLatLon0.09_PT060H.grib2 2026-04-30 20:56 470K
20260430T18Z_MSC_RDPS_WindV_IsbL-0600_RLatLon0.09_PT060H.grib2 2026-04-30 20:56 477K
20260430T18Z_MSC_RDPS_WindV_IsbL-0650_RLatLon0.09_PT060H.grib2 2026-04-30 20:56 493K
20260430T18Z_MSC_RDPS_WindV_IsbL-0700_RLatLon0.09_PT060H.grib2 2026-04-30 20:56 514K
20260430T18Z_MSC_RDPS_WindV_IsbL-0750_RLatLon0.09_PT060H.grib2 2026-04-30 20:56 538K
20260430T18Z_MSC_RDPS_WindV_IsbL-0800_RLatLon0.09_PT060H.grib2 2026-04-30 20:56 577K
20260430T18Z_MSC_RDPS_WindV_IsbL-0850_RLatLon0.09_PT060H.grib2 2026-04-30 20:56 630K
20260430T18Z_MSC_RDPS_WindV_IsbL-0875_RLatLon0.09_PT060H.grib2 2026-04-30 20:56 650K
20260430T18Z_MSC_RDPS_WindV_IsbL-0900_RLatLon0.09_PT060H.grib2 2026-04-30 20:56 660K
20260430T18Z_MSC_RDPS_WindV_IsbL-0925_RLatLon0.09_PT060H.grib2 2026-04-30 20:56 661K
20260430T18Z_MSC_RDPS_WindV_IsbL-0950_RLatLon0.09_PT060H.grib2 2026-04-30 20:56 659K
20260430T18Z_MSC_RDPS_WindV_IsbL-0970_RLatLon0.09_PT060H.grib2 2026-04-30 20:56 659K
20260430T18Z_MSC_RDPS_WindV_IsbL-0985_RLatLon0.09_PT060H.grib2 2026-04-30 20:56 652K
20260430T18Z_MSC_RDPS_WindV_IsbL-1000_RLatLon0.09_PT060H.grib2 2026-04-30 20:56 784K
20260430T18Z_MSC_RDPS_WindV_IsbL-1015_RLatLon0.09_PT060H.grib2 2026-04-30 20:56 776K